Theta_e
322 322 322 321 321 321 319 318 317 317 318 318 318 319 319 320 319 321 322 323 323 323 322 321 322 323 324 325 326 325 324 324 324 324 322 321 321 321 321 320 319 319
321 319 317 318 318 316 318 318 317 318 318 318 318 319 318 317 318 319 321 321 321 321 322 322 322 323 324 324 325 325 325 324 324 323 324 322 321 321 321 321 320 319
319 318 318 318 319 317 317 317 317 317 317 317 317 316 317 316 318 317 319 320 321 322 322 323 323 323 324 324 325 324 323 323 323 321 318 319 320 320 320 320 319 318
316 317 318 318 318 318 317 315 315 315 315 315 315 316 316 316 316 316 317 313 320 320 321 322 322 323 323 324 324 323 323 323 323 322 319 316 315 317 318 318 317 317
314 315 317 318 318 316 314 315 315 315 315 316 314 313 312 313 314 314 315 317 318 319 319 320 321 321 321 322 322 322 322 321 320 318 317 316 313 313 316 316 316 316
313 315 315 316 314 314 314 315 315 314 314 312 314 312 313 313 312 312 312 313 313 315 316 318 318 319 320 320 320 320 319 317 315 312 310 311 313 312 314 314 314 314
310 308 309 310 311 311 312 312 312 310 313 312 306 309 309 309 311 312 313 314 314 313 315 315 316 316 316 316 316 315 314 313 312 311 311 310 307 309 307 308 309 310
304 304 308 307 311 309 309 310 309 309 307 302 305 308 304 308 307 310 310 312 313 313 312 313 314 316 314 312 313 314 314 311 308 307 307 307 306 307 308 307 307 308
302 303 303 304 307 306 305 304 302 299 298 301 301 300 296 301 304 304 306 306 307 307 309 307 310 308 305 306 307 308 309 306 305 306 307 306 305 306 307 307 306 305
299 297 298 299 302 300 300 298 297 297 295 297 298 296 297 296 298 301 301 301 303 302 302 303 303 302 303 302 305 304 303 304 303 303 304 305 306 307 306 305 305 304
292 292 296 296 298 297 298 296 295 295 295 297 296 298 299 297 296 296 299 300 301 302 303 300 300 301 302 301 300 299 300 301 301 301 301 302 303 304 301 304 304 303
290 290 294 295 295 295 295 294 293 294 294 294 297 301 295 296 297 296 298 298 297 298 298 298 298 297 298 299 300 298 297 298 298 298 299 301 301 302 302 301 302 302
292 291 290 292 293 294 292 292 293 292 294 295 292 295 295 295 293 294 293 295 294 294 296 296 297 296 296 296 296 296 297 296 296 295 296 296 296 297 297 297 298 298
290 292 292 292 293 293 294 293 293 292 293 291 289 294 293 294 294 294 291 291 293 294 294 293 294 294 294 294 294 294 295 294 294 295 294 293 293 293 292 293 293 294
292 293 294 294 294 295 294 294 293 292 290 290 291 291 292 291 292 293 291 291 290 291 291 291 293 293 293 292 292 293 293 295 294 293 292 292 291 291 290 291 291 291
294 294 295 294 294 294 293 291 291 290 290 290 291 290 290 289 290 291 291 291 291 290 289 290 291 293 291 292 293 293 293 293 293 291 290 290 290 290 290 290 290 290
295 295 294 294 294 292 291 291 291 290 290 290 289 289 290 289 290 291 290 289 291 291 290 289 290 292 291 294 294 294 292 292 292 291 291 290 290 290 289 289 289 289
295 294 293 292 291 292 291 290 289 289 290 290 289 289 289 288 290 290 289 288 289 288 289 288 288 289 292 293 294 294 293 291 291 290 290 289 289 289 288 289 289 288
294 293 292 291 291 291 290 289 289 289 289 289 289 289 287 289 289 288 288 288 289 289 288 287 288 290 292 293 293 293 294 292 289 289 289 288 288 288 288 288 288 287
293 292 292 292 291 290 289 289 289 290 289 289 289 287 288 288 288 288 288 288 288 288 288 288 288 289 291 292 292 292 293 292 288 288 288 288 288 288 288 287 287 287
293 292 291 291 291 289 289 289 289 290 289 288 288 289 289 289 288 289 288 287 287 287 288 288 288 289 291 291 292 293 293 291 287 286 286 286 287 286 286 286 286 286
293 292 291 291 290 289 289 289 289 290 289 288 288 288 288 288 287 288 287 287 287 287 288 288 287 289 290 291 292 292 293 287 286 286 286 286 286 285 285 285 285 285
293 292 291 291 290 289 289 289 289 289 289 288 288 287 287 287 287 286 286 286 286 287 287 287 286 288 289 290 291 292 290 286 286 286 286 285 285 285 285 284 284 283
293 292 291 290 290 289 289 289 289 288 288 288 289 288 287 287 287 286 286 286 286 286 287 286 286 286 288 290 290 291 288 286 286 286 285 285 284 283 282 282 282 283
292 292 291 290 290 290 290 289 289 288 288 287 288 288 287 287 286 286 286 286 286 286 285 286 286 286 288 289 290 291 287 285 285 285 284 283 281 280 278 278 278 280
292 291 291 290 290 289 289 289 288 288 287 287 287 287 287 286 286 286 286 285 285 285 285 286 286 285 285 288 289 290 289 285 284 283 282 280 277 276 276 276 276 277
Wind_Speed
11 10 11 9 10 9 8 8 7 8 8 7 8 7 8 8 7 8 9 9 10 10 9 9 9 9 9 9 8 7 7 8 9 8 8 8 9 11 13 14 13 12
12 10 8 8 8 7 7 7 8 9 9 8 8 7 7 6 7 8 9 9 9 10 10 9 9 9 9 8 8 8 8 8 9 8 11 13 9 8 10 11 11 10
9 9 10 11 10 9 9 8 8 8 8 8 7 6 6 7 8 8 8 8 9 9 9 9 9 9 9 9 9 8 8 9 10 7 7 7 6 8 8 8 8 8
9 10 9 9 9 10 8 7 7 7 6 6 7 8 8 7 7 7 7 8 8 8 8 8 9 9 9 9 9 9 9 10 10 9 7 5 5 6 7 6 7 8
8 8 9 10 10 8 6 8 9 8 8 8 6 6 7 7 7 7 7 7 7 8 7 8 8 8 8 8 8 9 9 9 7 7 7 7 5 4 5 6 7 8
8 9 9 8 7 7 8 9 8 7 8 6 8 7 7 6 6 6 6 7 6 6 7 7 7 7 7 8 7 8 8 7 6 5 4 4 5 6 5 6 7 9
9 7 7 5 6 7 8 7 6 7 7 7 4 5 5 6 6 7 7 7 7 7 7 7 7 7 6 6 7 7 6 6 6 6 6 6 4 6 5 5 7 8
6 4 5 5 7 6 7 7 6 6 5 3 5 6 4 6 6 6 6 6 6 6 6 6 6 6 6 6 7 8 8 6 5 6 6 6 5 6 7 7 7 8
4 5 5 6 6 6 6 6 5 4 4 5 5 4 3 5 5 5 5 4 4 5 5 4 5 4 4 4 4 4 5 4 4 4 6 5 5 6 7 7 6 7
6 5 5 5 6 5 5 4 5 4 4 4 5 4 4 3 3 3 4 4 4 4 3 4 4 3 2 2 3 2 3 3 3 3 4 4 5 6 6 5 7 6
5 5 6 6 5 5 5 5 4 4 4 4 3 3 2 2 2 2 3 3 3 3 3 3 3 2 2 3 3 3 3 3 3 3 4 4 5 5 5 6 6 7
5 5 6 6 5 5 5 4 4 4 3 2 3 3 2 2 3 1 2 2 2 2 2 2 2 2 3 3 4 3 3 2 3 3 4 4 4 4 5 5 6 6
6 6 5 6 5 5 4 4 4 3 3 3 2 3 4 3 3 3 1 2 3 3 2 2 2 2 3 3 2 1 1 3 3 3 3 3 4 4 4 4 4 5
5 4 5 5 5 5 5 4 4 3 3 2 3 3 4 4 4 4 3 3 3 3 3 3 2 2 2 2 2 2 2 2 2 2 3 3 4 4 3 4 4 4
5 4 4 5 5 5 5 4 4 3 3 3 4 4 4 3 3 4 3 3 1 2 2 2 3 3 3 3 2 2 2 2 2 2 3 3 3 3 3 3 3 3
5 5 6 5 5 5 5 4 3 4 4 4 4 4 4 3 3 2 3 4 4 2 2 3 3 3 3 3 3 2 1 2 2 3 3 2 2 2 3 2 2 2
6 6 6 6 5 4 4 4 5 4 4 4 4 4 4 4 4 5 4 4 4 4 4 3 3 3 3 3 3 4 3 2 2 2 1 1 2 2 3 2 1 0
7 6 6 5 5 6 6 6 5 5 5 5 5 5 4 4 5 5 4 4 4 3 3 3 2 2 1 1 1 1 2 1 1 1 2 2 2 2 3 2 1 1
7 7 6 6 6 6 6 5 6 6 6 6 6 5 3 5 4 4 4 3 4 4 4 2 1 1 2 2 2 2 2 3 1 1 1 2 2 2 1 1 2 2
7 8 8 7 6 6 6 6 7 8 6 5 4 4 5 5 4 5 4 4 3 3 4 2 1 1 1 1 1 1 2 4 1 1 1 0 1 1 1 1 1 1
8 8 8 7 7 6 7 7 7 6 6 6 5 6 6 6 5 5 4 3 3 3 4 3 2 1 1 1 2 3 3 5 3 2 1 1 0 0 0 0 0 1
9 9 8 8 8 8 8 8 8 8 7 5 4 4 3 3 2 2 3 3 3 3 3 3 1 2 2 1 3 3 6 5 3 2 2 1 0 0 0 0 0 1
11 10 10 10 10 9 9 9 9 8 6 5 5 5 4 4 3 2 2 3 3 3 3 2 1 1 2 2 2 4 5 4 3 3 2 1 1 0 0 1 1 2
11 11 11 11 10 11 11 8 7 4 5 5 6 6 4 3 3 3 2 3 4 3 3 3 1 0 1 1 2 4 5 4 4 3 2 1 1 0 0 0 1 3
11 11 10 10 11 11 9 9 8 7 4 5 4 4 5 4 4 4 3 2 3 3 4 4 2 1 0 1 2 4 4 3 4 3 1 0 0 1 1 1 2 2
10 11 11 11 11 9 8 7 5 5 6 6 5 4 5 4 4 4 5 3 3 3 3 3 3 2 1 2 1 2 5 4 3 3 1 1 1 1 3 3 2 2
Wind_Direction
217 213 221 218 226 222 217 211 206 211 219 215 219 221 216 220 206 209 218 221 226 231 232 229 227 228 229 230 227 227 226 227 229 229 234 236 230 222 222 220 219 220
215 212 217 218 226 217 218 206 210 211 220 214 217 220 218 211 214 209 217 221 223 227 230 231 230 230 230 229 229 232 235 235 237 225 228 231 232 233 241 241 237 232
208 208 210 213 219 217 215 211 214 216 217 218 216 214 219 210 217 214 219 219 223 226 227 228 230 230 229 229 227 228 231 237 241 233 226 223 214 218 228 233 239 230
209 207 208 216 218 222 212 208 217 218 217 222 214 214 215 219 215 219 218 219 224 226 225 225 228 230 229 230 228 229 232 234 235 229 229 231 219 215 223 224 232 236
202 204 209 216 219 216 199 209 217 214 218 221 222 218 221 221 218 219 217 218 219 226 222 223 223 225 225 228 228 232 233 236 231 221 227 239 243 219 233 229 237 238
213 212 214 214 209 198 208 213 216 212 219 223 223 219 222 220 219 218 216 219 218 221 224 223 223 225 225 228 227 232 233 231 234 234 237 235 241 243 247 240 242 245
213 207 211 203 202 206 211 216 215 215 218 223 214 224 214 218 217 215 214 215 215 216 221 222 223 229 225 226 234 239 240 229 227 219 227 239 232 248 248 241 241 242
205 199 197 194 204 201 211 211 214 213 213 193 203 224 203 218 217 219 214 214 211 212 214 221 225 230 228 224 230 236 244 236 222 208 209 222 216 231 240 236 234 240
185 193 183 193 196 197 204 205 203 200 176 190 206 209 201 210 214 215 216 209 214 220 217 216 223 230 252 243 241 238 248 253 234 222 217 221 227 237 241 241 240 239
187 182 179 183 187 183 187 185 183 180 172 180 189 175 186 207 203 197 182 188 204 206 232 239 216 211 233 218 220 220 234 249 245 227 235 235 236 243 242 236 236 241
167 168 171 175 174 170 177 170 168 159 168 169 147 157 156 135 97 109 128 145 178 176 178 187 200 185 203 216 216 206 210 227 237 239 239 242 245 247 249 242 240 234
163 162 173 175 168 172 175 170 163 146 135 116 155 152 128 125 151 127 149 161 165 176 177 184 177 184 194 208 211 200 197 216 252 261 261 259 259 257 256 251 247 250
174 179 157 166 173 174 170 164 162 143 139 149 159 152 160 161 153 142 151 156 174 159 168 179 174 180 196 216 239 238 211 220 231 251 269 274 277 280 282 278 267 265
185 174 165 171 168 160 163 164 151 154 161 161 155 164 176 179 174 167 178 166 168 168 176 164 160 180 213 217 217 213 208 229 227 253 277 292 298 299 300 289 284 283
171 169 159 157 158 156 161 168 170 173 171 180 195 204 197 194 177 160 152 157 141 159 165 168 167 193 188 185 185 191 180 193 212 220 229 259 286 295 302 300 302 308
171 166 168 165 167 173 176 172 173 178 178 194 208 207 203 194 185 181 187 188 182 174 158 158 174 181 167 182 196 175 178 202 205 207 201 202 230 268 276 258 279 312
174 179 173 185 186 179 181 183 194 183 190 201 196 193 188 189 176 179 187 182 180 175 171 178 189 182 173 194 196 187 176 191 218 244 204 201 209 229 261 292 288 6
183 177 182 189 181 193 187 190 182 185 196 198 194 192 195 169 180 181 169 166 156 151 168 185 200 222 216 242 234 210 185 185 196 251 245 232 222 221 237 258 296 318
182 182 187 188 193 182 186 180 186 192 197 193 199 198 166 177 186 160 171 171 166 171 178 172 193 228 189 216 218 186 168 163 167 211 223 248 253 262 276 278 250 254
182 184 191 192 182 185 183 189 193 200 197 197 184 169 181 180 172 176 172 174 166 155 148 155 187 246 225 218 211 104 105 129 124 150 212 333 356 346 301 256 268 292
186 186 189 186 186 187 191 197 196 197 197 193 184 183 182 183 179 182 182 159 150 144 139 152 187 204 185 132 107 109 115 120 115 105 86 86 94 137 314 348 215 216
185 187 186 185 187 192 197 199 197 197 192 185 183 186 182 147 130 136 145 151 151 143 134 152 192 150 149 162 146 134 129 117 117 123 139 147 123 80 137 202 215 247
187 185 187 189 188 193 200 198 195 197 194 169 176 181 173 173 170 151 151 144 143 149 145 157 155 123 142 173 152 142 124 127 132 134 133 134 171 146 154 174 213 216
187 186 188 190 189 199 198 197 192 186 186 174 180 171 173 168 150 124 111 140 153 159 162 155 186 358 150 175 147 147 146 145 144 138 154 166 165 102 121 237 267 249
185 186 189 190 197 200 193 190 189 185 159 161 169 160 166 151 148 145 146 151 154 154 162 151 170 243 239 252 158 145 135 130 132 133 149 189 55 352 7 15 343 357
184 186 189 191 199 194 189 188 165 157 164 165 157 156 152 151 149 153 158 164 160 153 167 165 162 194 206 222 190 144 139 115 115 118 148 353 26 19 352 345 355 330